Location: Bittkow
(50.3000°N, 19.0000°E)
Time: 11:53:28
(UTC+00:00)

Cosmos 1697 Rocket - Pass Details

Date: 19 September 2020
Orbit: 832 x 843 km, 71.0° (Epoch: 23 October)

Event Time Altitude Azimuth Distance (km) Brightness Sun altitude
Exits shadow 02:32:38 32° 239° (WSW) 1,395 3.3 -18.3°
Maximum altitude 02:35:06 59° 304° (NW) 964 2.8 -17.9°
Drops below altitude 10° 02:40:40 10° 24° (NNE) 2,454 5.8 -17.1°
Sets 02:43:10 0° 28° (NNE) 3,393 6.7 -16.8°
